Regional Weather Roundup
Issued by NWS

Home | Current Version | Previous Version | Text Only | Print | Product List | Glossary On
Versions: 1 2 3 4 5 6 7 8 9 10 11 12 13 14 15 16 17 18 19 20 21 22 23 24 25 26 27 28 29 30 31 32 33 34 35 36 37 38 39 40 41 42 43 44 45 46 47 48 49 50
000
ASUS42 KTBW 200010
RWRFL
FLORIDA REGIONAL WEATHER ROUNDUP
NATIONAL WEATHER SERVICE TAMPA BAY RUSKIN FL
700 PM EST FRI DEC 19 2014

NOTE: "FAIR" INDICATES FEW OR NO CLOUDS BELOW 12,000 FEET WITH NO
SIGNIFICANT WEATHER AND/OR OBSTRUCTIONS TO VISIBILITY.


FLZ001>010-012>015-112-114-115-200100-
PANHANDLE FLORIDA

CITY           SKY/WX    TMP DP  RH WIND       PRES   REMARKS
PENSACOLA      CLOUDY    50  46  86 N8        30.11F
PENSACOLA NAS  LGT RAIN  50  48  93 N8        30.11R
MILTON NAS     LGT RAIN  49  49 100 NE3       30.11F
CRESTVIEW      LGT RAIN  50  48  93 N3        30.15S
DUKE FIELD     LGT RAIN  51  49  91 CALM      30.12S
VALPARAISO     LGT RAIN  52  48  88 N7        30.12S
MARY ESTHER    LGT RAIN  51  45  79 NE8       30.10F
TRI COUNTY     CLOUDY    55  43  63 N3        30.15
PANAMA CITY    RAIN      51  47  86 N3        30.12R
APALACHICOLA   LGT RAIN  56  50  80 NE6       30.08S

STATION/POSITION SKY/WX   TEMP    WIND        PRES    WAVE   SWELL
                          AIR SEA DIR/SP/G            HT/PER HT/PER
                          (F)     (DEG/KT/KT) (MB)    (FT/S) (FT/S)
30.1N   87.6W              57 67   60/ 16/ 19 1018.3S   2/ 4
29.2N   88.2W              67 74  110/ 16/ 19 1016.8R   4/ 5
PANAMA CITY BEAC           51 62   10/  4/  6 1019.7R
CAPE SAN BLAS    NOT AVBL
TOWER C                    62      90/  9/  9 1018.4R
28.5N   84.5W              65 71  100/ 12/ 14 1017.9F   1/ 3

$$
FLZ011-016>038-118-127-128-134-139-239-200100-
NORTH FLORIDA

CITY           SKY/WX    TMP DP  RH WIND       PRES   REMARKS
MARIANNA       LGT RAIN  55  45  68 W3        30.14R
TALLAHASSEE    LGT RAIN  53  48  83 SW6       30.11R
PERRY          CLOUDY    58  47  66 CALM      30.08S
CROSS CITY       N/A     53  44  71 CALM      30.07R
LAKE CITY      FAIR      55  41  58 CALM      30.08R
GAINESVILLE    PTCLDY    56  44  64 CALM      30.09R
MAYPORT NAS    PTCLDY    59  52  77 E8        30.10R
JACKSONVILLE   PTCLDY    56  49  77 E6        30.08S
JAX NAS        MOCLDY    62  49  62 E7        30.10R
JAX CRAIG      PTCLDY    56  49  77 SE3       30.10R
JAX CECIL      CLEAR     50  45  81 CALM      30.09R
FERNANDINA BEA FAIR      63  52  67 E6        30.08S
ST AUGUSTINE   PTCLDY    59  54  83 CALM      30.10S

STATION/POSITION SKY/WX   TEMP    WIND        PRES    WAVE   SWELL
                          AIR SEA DIR/SP/G            HT/PER HT/PER
                          (F)     (DEG/KT/KT) (MB)    (FT/S) (FT/S)
SHELL POINT                56     350/  4/  6   N/A
KEATON BEACH               57     340/  2/  3 1018.6F
CEDAR KEY                  60     320/  2/  3 1018.8F
FERNANDINA                 59 59   90/  3/  5 1018.2F
30.7N   81.3W                 61                N/A     1/10
MAYPORT                    60 62   90/  6/  7   N/A
31.4N   80.9W              58 58   90/  6/  8 1018.9F   1/10   2/10
ST AUGUSTINE               62      80/  7/  8 1019.6S

$$
FLZ040-043>046-052-053-057-058-063-144-200100-
INTERIOR CENTRAL FLORIDA

CITY           SKY/WX    TMP DP  RH WIND       PRES   REMARKS
OCALA          CLEAR     55  39  54 CALM      30.09R
THE VILLAGES     N/A     59  45  58 CALM      29.99R HAZE
LEESBURG       PTCLDY    58  44  60 CALM      30.09R
SANFORD        CLEAR     60  47  61 NE3       30.09R
ORLANDO EXEC   CLEAR     64  44  48 NE5       30.08S
ORLANDO INTL   PTCLDY    65  41  41 NE9       30.09S
KISSIMMEE      CLEAR     64  43  45 CALM      30.09R
WINTER HAVEN   PTCLDY    63  44  50 NE5       30.09S
LAKELAND       PTCLDY    61  48  63 NE5       30.08R
BARTOW         FAIR      57  46  67 NE3       30.08S
OKEECHOBEE     CLEAR     61  55  82 E3        30.08R

$$
FLZ041-047-054-059-064-141-147-200100-
EAST CENTRAL FLORIDA

CITY           SKY/WX    TMP DP  RH WIND       PRES   REMARKS
ORMOND BEACH   CLEAR     55  54  94 CALM      30.10S
DAYTONA BEACH  PTCLDY    61  55  81 N3        30.10R
DELAND           N/A    N/A N/A N/A CALM      30.10S
JFK SPACE CTR  CLEAR     56  53  92 CALM      30.09S
TITUSVILLE     PTCLDY    57  55  94 NE5       30.09S
CAPE CANAVERAL CLEAR     60  56  86 N3        30.08R
PATRICK AFB    CLEAR     63  58  83 N8        30.08S
MELBOURNE      CLEAR     60  51  72 CALM      30.08R
VERO BEACH     CLEAR     59  55  87 N3        30.07F
FT PIERCE      CLEAR     63  57  81 CALM      30.07R
STUART         PTCLDY    64  57  77 CALM      30.08R

STATION/POSITION SKY/WX   TEMP    WIND        PRES    WAVE   SWELL
                          AIR SEA DIR/SP/G            HT/PER HT/PER
                          (F)     (DEG/KT/KT) (MB)    (FT/S) (FT/S)
28.5N   80.2W              69 76   10/  2/  4 1018.9R
28.9N   78.5W              71 76   20/  6/  8 1019.4R   2/11   2/11
TRIDENT PIER               59 65  360/  3/  4 1018.4S
28.4N   80.5W                 66                N/A     1/10
27.6N   80.2W                 76                N/A     2/10

$$
FLZ050-056-061-142-242-148-248-149-249-151-251-155-255-
160-260-200100-
WEST CENTRAL FLORIDA

CITY           SKY/WX    TMP DP  RH WIND       PRES   REMARKS
CRYSTAL RIVER  FAIR      55  45  67 CALM      30.08S
INVERNESS      FAIR      54  45  71 CALM      30.09S
BROOKSVILLE    PTCLDY    57  49  74 CALM      30.08S
ZEPHYRHILLS    FAIR      54  45  71 CALM      30.09R
CLEARWATER     PTCLDY    60  53  77 NE5       30.07R
TAMPA INTL     MOCLDY    67  47  48 NE5       30.08R
TAMPA EXEC     PTCLDY    59  50  72 CALM      30.08R
PLANT CITY     PTCLDY    63  48  59 E3        30.09S
MACDILL AFB    CLOUDY    60  51  73 E6        30.06S
PETER O KNIGHT PTCLDY    66  52  59 E6        30.07R
ST PETERSBURG  MOCLDY    67  53  61 NE5       30.05R
SARASOTA       PTCLDY    63  53  70 CALM      30.05R
VENICE         FAIR      61  57  88 CALM      30.07S

STATION/POSITION SKY/WX   TEMP    WIND        PRES    WAVE   SWELL
                          AIR SEA DIR/SP/G            HT/PER HT/PER
                          (F)     (DEG/KT/KT) (MB)    (FT/S) (FT/S)
CEDAR KEY                  60     320/  2/  3 1018.8F
28.5N   84.5W              65 71  100/ 12/ 14 1017.9F   1/ 3
27.3N   84.3W                 76                N/A     2/ 3
CLEARWATER BEACH           63 64   10/  6/  7 1017.8R
MIDDLE TAMPA BAY           65      80/  4/  5 1018.2R
VENICE                     64 65  330/  4/  4 1017.8R

$$
FLZ066-069-070-075>078-162-262-165-265-200100-
SOUTHWEST FLORIDA AND KEYS

CITY           SKY/WX    TMP DP  RH WIND       PRES   REMARKS
PUNTA GORDA    CLEAR     59  49  69 NE5       30.08R
FT MYERS       CLEAR     66  53  63 W3        30.05R
SOUTHWEST INTL CLEAR     65  53  65 CALM      30.06R
NAPLES         CLEAR     65  57  75 CALM      30.05R
MARCO ISLAND   PTCLDY    66  57  72 N6        30.05R
MARATHON       CLEAR     71  61  70 E5        30.04R
KEY WEST NAS   PTCLDY    70  63  78 NE6       30.04R
KEY WEST INTL  CLEAR     71  63  75 NE7       30.04R

STATION/POSITION SKY/WX   TEMP    WIND        PRES    WAVE   SWELL
                          AIR SEA DIR/SP/G            HT/PER HT/PER
                          (F)     (DEG/KT/KT) (MB)    (FT/S) (FT/S)
VENICE                     64 65  330/  4/  4 1017.8R
NAPLES                     67 73  350/  5/  7 1018.1R
26.0N   85.6W              71 77  110/ 10/ 14 1017.1R   2/ 6   2/ 6
DRY TORTUGAS               70     100/ 12/ 13 1016.7R
NW FL BAY                  72     110/  9/ 10 1017.0S
SAND KEY                   72      70/ 12/ 14 1016.7F
SOMBRERO KEY               74     100/ 12/ 13 1017.9R
LONG KEY                   71 70   90/  7/  7 1017.9R
MOLASSES REEF              73 76  110/ 10/ 13 1017.8R

$$
FLZ067-068-071>074-168-172>174-200100-
SOUTHEAST FLORIDA

CITY           SKY/WX    TMP DP  RH WIND       PRES   REMARKS
W PALM BEACH   MOCLDY    73  62  68 SE7       30.05R
FT LAUDER-EXEC CLEAR     70  59  68 SE3       30.06R
FT LAUDERDALE  MOCLDY    71  61  70 SE6       30.06R
POMPANO BEACH  PTCLDY    72  58  61 SE6       30.06R
PEMBROKE PINES CLEAR     70  58  65 SE3       30.07R
OPA LOCKA      CLEAR     68  58  70 SE5       30.07R
MIAMI          MOCLDY    71  59  65 SE7       30.06R
WEST KENDALL   CLEAR     67  59  75 SE5       30.07R
HOMESTEAD      CLEAR     64  61  90 E3        30.06R

STATION/POSITION SKY/WX   TEMP    WIND        PRES    WAVE   SWELL
                          AIR SEA DIR/SP/G            HT/PER HT/PER
                          (F)     (DEG/KT/KT) (MB)    (FT/S) (FT/S)
PORT EVERGLADES            73     120/  3/  7 1017.5
VIRGINIA KEY               73 75  110/  7/ 11 1018.2S
LAKE WORTH                 73 76  100/  8/ 11 1017.6R
FOWEY ROCKS                73 76  100/ 13/ 15 1017.6R
SETTLEMENT POINT           71      70/ 10/ 11 1019.2R

$$




USA.gov is the U.S. government's official web portal to all federal, state and local government web resources and services.